Home > Weather > Maribor > Past weeks

Flag for Slovenia Past Weather in Maribor, Slovenia — Yesterday and Last 2 Weeks

Now
60 °F

Cool.


Feels Like: 60 °F
Forecast: 56 / 74 °F
Wind: 5 mph from Southwest

Location: Maribor / Slivnica

Current Time: May 30, 2016 at 3:14:00 AM

Latest Report: May 30, 2016 at 2:00 AM


Visibility: 28 mi

Pressure: 29.73 "Hg

Humidity: 74%

Dew Point: 51 °F

Location of MariborLocation

Past Weather in Maribor — Graph

°F

Maribor Temperature Yesterday

Maximum temperature yesterday: 82 °F (at 3:00 PM)
Minimum temperature yesterday: 62 °F (at 11:00 PM)
Average temperature yesterday: 72 °F

High & Low Weather Summary for the Past Weeks

 TemperatureHumidityPressure
High84 °F (May 28, 4:00 PM)97% (May 16, 1:00 AM)30.16 "Hg (May 16, 1:00 AM)
Low39 °F (May 16, 6:00 AM)31% (May 26, 5:00 PM)29.67 "Hg (May 29, 5:00 PM)
Average61 °F67%29.93 "Hg
* Reported May 15 1:00 AM — May 30 1:00 AM, Maribor, Weather by CustomWeather, © 2016

Note: Actual official high and low records may vary slightly from our data, if they occured in-between our weather recording intervals... More about our weather records

Advertising

Maribor Weather History for the Previous 24 Hours

Scroll right to see more
 ConditionsComfort  
Time TempWeatherWind HumidityBarometerVisibility
1:00 AM
Mon, May 30
61 °FCool.3 mph76%29.75 "Hg28 mi
12:00 AM61 °FCool.7 mph81%29.74 "Hg22 mi
11:00 PM
Sun, May 29
62 °FRain showers. Overcast.7 mph83%29.76 "Hg19 mi
10:00 PM63 °FPassing clouds.3 mph81%29.74 "Hg16 mi
9:00 PM64 °FOvercast.5 mph81%29.75 "Hg16 mi
8:00 PM69 °FLight rain. Overcast.7 mph62%29.74 "Hg9 mi
7:00 PM71 °FOvercast.6 mph54%29.70 "Hg12 mi
6:00 PM71 °FThundershowers. Overcast.9 mph63%29.70 "Hg7 mi
5:00 PM80 °FPartly sunny.6 mph45%29.67 "Hg19 mi
4:00 PM82 °FPartly sunny.6 mph45%29.67 "Hg19 mi
3:00 PM82 °FWarm.N/A42%29.67 "HgN/A
2:00 PM82 °FPartly sunny.6 mph39%29.68 "Hg19 mi
1:00 PM82 °FPartly sunny.6 mph40%29.69 "Hg19 mi
12:00 PM79 °FPartly sunny.7 mph43%29.70 "Hg19 mi
11:00 AM76 °FPartly sunny.6 mph46%29.72 "Hg19 mi
10:00 AM75 °FScattered clouds.6 mph47%29.74 "Hg19 mi
9:00 AM70 °FPartly sunny.5 mph59%29.75 "Hg19 mi
8:00 AM68 °FOvercast.1 mph58%29.76 "Hg19 mi
7:00 AM66 °FOvercast.6 mph59%29.76 "Hg19 mi
6:00 AM67 °FPartly sunny.6 mph56%29.76 "Hg19 mi
5:00 AM66 °FMild.2 mph58%29.77 "Hg28 mi
4:00 AM68 °FMild.3 mph56%29.78 "Hg28 mi
3:00 AM68 °FMild.6 mph57%29.78 "Hg28 mi
Weather by CustomWeather, © 2016

See weather overviewHow to use our weather pages